sat.trackr.live / text

‹ back to catalog

UNKNOWN

NORAD 87164

UNKNOWN UNKNOWN UNKNOWN

§ Identity

Operator
Country
Launch date
Launch site
Launch vehicle
Mass (kg)
RCS (m²)

External: N2YO · Heavens-Above

§ Orbital elements

Epoch: 2026-09-18T05:21:40.445856Z

Period
98.58 min
Inclination
65.2015°
Eccentricity
0.0121299
Mean motion
14.60671145 rev/d
Perigee alt
605.3 km
Apogee alt
776.8 km
Semi-major
7,069.1 km
B*
5.3482e-4
RAAN
234.2380°
Arg perigee
296.7328°
Mean anomaly
62.1400°
Rev number
67,656

§ Raw data

UNKNOWN1 87164U          26261.22338479  .00002768  00000+0  53482-3 0  99982 87164  65.2015 234.2380 0121299 296.7328  62.1400 14.60671145676568

JSON: /api/v1/satellites/87164 · /tle

For live sub-satellite position, see the globe view (requires WebGL).

§ Visibility from observer

Set your observer location to see the next 7 days of passes ≥ 10°. The values pass through the URL so the page stays shareable.

No JS? Fill the form by hand. The geolocation button needs JavaScript.